MDBH

Maria Montez International Airport

Airport
ICAO code
MDBH
IATA Code
BRX
Summary
ICAO Region
CARSAM
ICAO Territory
Location

Barahona, Dominican Republic

Serving
Barahona
Elevation
10 ft
Coordinates
18° 14' 57" N , 71° 7' 24" W
KCC
Airport WX
Tropical Revolving Storm
Metar
MDBH 151700Z 13008KT 9999 FEW023 32/25 Q1014

María Montez International Airport is an international airport located in Barahona, Dominican Republic.

Climatology

Tropical savannah climate (Köppen climate classification Aw)

Runways

Designator Length Width Surface Rops
12/30 3000 45 ASP No/No

Airport map

Aerial View

SKYbrary Partners:

Safety knowledge contributed by: